Temp
-11 -12 -12 -13 -13 -13 -13 -13 -13 -13 -13 -13 -13 -13 -13 -13 -13 -13 -13 -13 -13 -14 -14 -14 -14 -14 -14 -14 -14 -14 -14 -13 -13 -14 -13 -14 -13 -13 -13 -14 -14 -13 -14 -13
-12 -12 -12 -12 -12 -12 -12 -13 -13 -13 -13 -13 -13 -13 -13 -13 -13 -13 -13 -13 -13 -13 -13 -13 -13 -13 -13 -13 -13 -13 -14 -14 -14 -13 -13 -14 -14 -14 -13 -14 -14 -14 -14 -14
-11 -12 -12 -12 -12 -12 -12 -12 -13 -13 -13 -13 -13 -13 -13 -13 -13 -13 -13 -12 -13 -13 -13 -13 -13 -13 -13 -13 -13 -13 -13 -14 -14 -14 -14 -14 -14 -14 -13 -13 -13 -13 -13 -12
-11 -11 -11 -11 -11 -12 -12 -12 -13 -13 -13 -13 -13 -13 -13 -13 -13 -13 -13 -13 -13 -13 -13 -13 -13 -13 -13 -13 -13 -13 -14 -14 -14 -14 -14 -14 -14 -14 -14 -14 -13 -13 -13 -13
-11 -11 -11 -12 -12 -12 -12 -12 -12 -13 -13 -13 -13 -13 -13 -13 -13 -13 -13 -13 -13 -13 -13 -13 -13 -13 -13 -13 -13 -13 -13 -14 -15 -14 -14 -15 -15 -14 -14 -14 -14 -14 -14 -13
-11 -11 -11 -12 -12 -11 -12 -12 -12 -12 -13 -13 -13 -13 -13 -13 -13 -13 -13 -13 -13 -13 -13 -13 -13 -13 -13 -13 -13 -13 -13 -15 -15 -14 -14 -14 -14 -14 -13 -13 -13 -13 -13 -13
-12 -11 -11 -12 -12 -12 -12 -12 -12 -12 -12 -12 -13 -13 -13 -13 -13 -13 -13 -13 -13 -13 -13 -13 -13 -13 -13 -13 -13 -14 -14 -14 -15 -14 -13 -13 -13 -12 -13 -13 -13 -13 -13 -14
-13 -12 -12 -13 -12 -13 -12 -12 -12 -12 -12 -12 -12 -12 -13 -13 -13 -13 -13 -14 -14 -14 -14 -14 -14 -14 -14 -13 -13 -14 -14 -14 -14 -14 -14 -14 -14 -14 -14 -14 -14 -14 -14 -14
-13 -13 -13 -13 -12 -12 -11 -12 -12 -12 -12 -12 -12 -12 -12 -13 -13 -13 -13 -14 -14 -14 -14 -14 -14 -14 -14 -14 -14 -14 -14 -14 -14 -14 -14 -14 -14 -14 -14 -14 -14 -14 -15 -14
-14 -13 -14 -13 -13 -12 -12 -12 -13 -12 -12 -13 -13 -13 -12 -12 -13 -13 -13 -13 -13 -14 -14 -14 -14 -14 -14 -14 -14 -14 -14 -14 -14 -14 -14 -14 -14 -14 -14 -14 -14 -14 -15 -15
-14 -14 -14 -14 -13 -13 -12 -12 -12 -12 -12 -13 -13 -13 -13 -13 -12 -13 -13 -14 -14 -14 -14 -14 -14 -14 -14 -14 -14 -15 -15 -15 -15 -14 -14 -14 -14 -14 -15 -15 -14 -14 -14 -14
-15 -15 -15 -13 -14 -14 -13 -13 -13 -12 -13 -13 -13 -14 -13 -13 -12 -12 -13 -14 -14 -14 -14 -14 -14 -14 -14 -15 -14 -14 -15 -15 -15 -15 -15 -15 -15 -15 -15 -15 -15 -15 -15 -15
-16 -16 -16 -15 -14 -14 -14 -12 -13 -13 -14 -14 -14 -13 -14 -13 -13 -13 -13 -13 -14 -14 -14 -14 -14 -14 -14 -14 -15 -15 -15 -15 -15 -16 -15 -16 -16 -16 -16 -16 -15 -15 -16 -16
-17 -17 -15 -16 -14 -14 -15 -14 -13 -13 -14 -14 -14 -14 -14 -14 -14 -14 -14 -13 -13 -13 -14 -14 -14 -14 -14 -15 -15 -15 -15 -15 -15 -16 -16 -16 -16 -16 -16 -17 -17 -17 -17 -16
-18 -17 -15 -15 -15 -15 -15 -15 -14 -14 -14 -14 -14 -14 -14 -14 -14 -14 -14 -14 -13 -13 -14 -14 -14 -14 -14 -15 -15 -15 -15 -15 -15 -16 -16 -16 -17 -17 -17 -17 -17 -17 -17 -17
-18 -17 -17 -16 -16 -15 -15 -15 -14 -14 -14 -14 -14 -14 -14 -14 -14 -14 -14 -14 -14 -14 -14 -14 -14 -14 -14 -15 -15 -15 -15 -15 -15 -15 -15 -15 -16 -17 -17 -18 -17 -17 -17 -17
-19 -18 -18 -17 -17 -16 -16 -15 -15 -15 -15 -14 -14 -14 -14 -14 -14 -14 -15 -14 -14 -14 -14 -14 -15 -14 -14 -15 -15 -15 -15 -15 -16 -16 -16 -16 -16 -16 -16 -17 -17 -18 -17 -17
-20 -19 -18 -17 -17 -16 -16 -16 -16 -15 -15 -15 -15 -15 -15 -15 -14 -14 -15 -15 -15 -15 -15 -15 -15 -15 -15 -15 -15 -16 -16 -16 -16 -16 -16 -16 -16 -16 -16 -16 -17 -17 -17 -17
-21 -20 -20 -19 -18 -17 -17 -17 -17 -16 -16 -15 -15 -15 -15 -15 -14 -14 -15 -15 -16 -15 -15 -15 -15 -15 -15 -15 -15 -16 -16 -16 -16 -16 -16 -17 -17 -17 -16 -17 -17 -17 -17 -17
-22 -21 -21 -20 -19 -18 -17 -17 -17 -17 -16 -16 -15 -15 -16 -15 -15 -15 -16 -16 -16 -16 -16 -16 -16 -15 -16 -16 -16 -16 -16 -16 -17 -17 -17 -17 -17 -17 -17 -17 -17 -18 -18 -18
-23 -23 -21 -21 -20 -19 -18 -18 -17 -17 -17 -16 -16 -16 -16 -16 -16 -17 -17 -17 -17 -17 -17 -17 -17 -17 -17 -16 -16 -17 -17 -17 -17 -17 -17 -18 -18 -18 -18 -18 -18 -18 -18 -18
-23 -23 -22 -21 -21 -20 -19 -19 -18 -18 -18 -17 -17 -17 -17 -16 -17 -17 -17 -17 -17 -17 -17 -17 -17 -17 -17 -17 -17 -17 -17 -17 -18 -18 -18 -18 -18 -18 -18 -18 -19 -19 -19 -19
-24 -23 -22 -22 -21 -21 -21 -20 -20 -20 -19 -19 -18 -18 -18 -18 -17 -17 -17 -17 -17 -17 -17 -17 -17 -17 -18 -18 -18 -18 -18 -18 -18 -18 -19 -19 -19 -19 -19 -19 -19 -19 -20 -20
-24 -24 -24 -22 -21 -22 -22 -22 -21 -21 -20 -19 -19 -19 -19 -19 -19 -19 -18 -18 -18 -18 -18 -17 -18 -18 -18 -18 -19 -19 -19 -19 -19 -19 -19 -19 -20 -20 -20 -20 -20 -21 -21 -21
-26 -25 -25 -24 -24 -24 -24 -23 -22 -22 -21 -21 -20 -20 -20 -20 -20 -19 -19 -19 -19 -19 -19 -19 -18 -18 -19 -19 -20 -20 -20 -20 -20 -20 -20 -20 -20 -21 -21 -21 -22 -22 -22 -22
-27 -26 -25 -25 -25 -24 -23 -24 -24 -22 -22 -22 -22 -21 -21 -21 -21 -20 -20 -20 -19 -19 -19 -19 -19 -19 -20 -20 -20 -20 -20 -20 -20 -20 -20 -21 -21 -22 -22 -23 -23 -24 -24 -24
-27 -27 -26 -26 -25 -24 -24 -23 -23 -23 -22 -22 -22 -22 -21 -21 -21 -21 -20 -20 -20 -20 -20 -20 -20 -20 -20 -20 -20 -20 -21 -21 -21 -21 -22 -22 -23 -23 -24 -25 -25 -25 -26 -25
Height
5707 5704 5700 5698 5695 5691 5688 5684 5681 5679 5676 5671 5667 5662 5660 5657 5654 5651 5649 5647 5645 5643 5642 5640 5638 5637 5634 5631 5629 5626 5622 5619 5615 5611 5608 5608 5607 5608 5606 5611 5614 5618 5626 5632
5706 5703 5699 5696 5693 5690 5687 5683 5680 5677 5675 5673 5670 5666 5662 5659 5654 5647 5642 5643 5643 5641 5639 5636 5635 5634 5632 5630 5628 5625 5623 5621 5618 5614 5612 5611 5612 5611 5613 5613 5614 5619 5623 5629
5704 5701 5699 5695 5691 5688 5685 5682 5679 5676 5674 5671 5670 5667 5664 5659 5655 5651 5646 5642 5639 5637 5635 5634 5632 5630 5628 5626 5624 5622 5620 5619 5618 5616 5614 5613 5611 5612 5612 5612 5614 5617 5618 5621
5702 5698 5697 5694 5690 5686 5683 5678 5676 5673 5671 5669 5666 5665 5663 5660 5657 5654 5650 5646 5642 5638 5635 5633 5631 5630 5628 5625 5622 5618 5615 5614 5615 5615 5615 5614 5612 5613 5613 5615 5615 5619 5622 5624
5696 5694 5694 5689 5686 5683 5681 5677 5673 5669 5667 5664 5663 5661 5659 5658 5655 5652 5650 5647 5645 5641 5638 5635 5633 5631 5628 5625 5621 5616 5610 5607 5610 5612 5613 5615 5614 5612 5613 5612 5615 5616 5617 5619
5691 5688 5687 5683 5678 5675 5673 5672 5669 5666 5663 5660 5657 5656 5653 5652 5651 5649 5646 5644 5643 5641 5638 5636 5633 5631 5627 5624 5620 5616 5609 5599 5603 5608 5611 5613 5613 5613 5613 5613 5613 5614 5615 5615
5683 5682 5682 5676 5671 5668 5665 5665 5662 5661 5658 5655 5652 5650 5646 5645 5643 5643 5642 5640 5638 5636 5635 5634 5631 5629 5626 5624 5620 5617 5612 5605 5606 5608 5610 5611 5610 5610 5610 5610 5610 5609 5609 5610
5674 5673 5674 5668 5663 5660 5658 5654 5652 5651 5650 5648 5646 5644 5643 5640 5638 5637 5634 5633 5632 5630 5629 5628 5627 5626 5624 5622 5620 5618 5615 5613 5611 5610 5610 5609 5609 5609 5609 5609 5610 5610 5610 5611
5665 5663 5662 5657 5653 5648 5646 5647 5645 5643 5640 5639 5640 5637 5635 5635 5632 5630 5628 5626 5624 5623 5622 5621 5620 5618 5618 5618 5618 5617 5615 5614 5612 5611 5610 5610 5609 5609 5608 5608 5608 5607 5607 5608
5651 5656 5649 5643 5643 5639 5637 5635 5634 5633 5632 5630 5629 5629 5628 5627 5626 5624 5622 5621 5619 5616 5615 5613 5612 5611 5610 5610 5610 5610 5610 5610 5609 5608 5607 5606 5605 5604 5604 5603 5602 5602 5602 5602
5635 5638 5632 5632 5629 5626 5624 5624 5622 5622 5622 5622 5618 5617 5617 5617 5616 5616 5614 5612 5611 5610 5608 5606 5606 5605 5603 5602 5601 5602 5601 5602 5601 5601 5600 5600 5599 5598 5597 5596 5596 5595 5594 5594
5617 5620 5612 5618 5616 5613 5610 5608 5608 5610 5611 5609 5608 5607 5605 5607 5606 5605 5605 5604 5603 5601 5600 5598 5598 5596 5596 5595 5593 5593 5592 5592 5592 5591 5591 5591 5590 5589 5588 5588 5586 5586 5585 5584
5598 5599 5597 5600 5598 5597 5592 5591 5594 5596 5596 5597 5596 5595 5594 5593 5594 5594 5594 5594 5593 5593 5592 5591 5590 5589 5587 5587 5585 5584 5583 5582 5581 5581 5580 5580 5579 5578 5577 5576 5575 5573 5572 5570
5574 5575 5579 5578 5579 5579 5579 5577 5576 5580 5581 5581 5581 5582 5583 5582 5581 5582 5582 5582 5583 5582 5583 5581 5581 5580 5579 5578 5576 5575 5574 5572 5571 5570 5569 5567 5566 5565 5564 5563 5562 5560 5559 5557
5556 5554 5554 5557 5561 5561 5559 5560 5560 5563 5563 5564 5565 5567 5568 5569 5570 5569 5569 5570 5571 5572 5571 5571 5570 5569 5569 5568 5567 5566 5564 5562 5561 5560 5558 5557 5555 5554 5552 5550 5547 5545 5543 5541
5536 5533 5535 5540 5540 5541 5542 5543 5544 5547 5547 5548 5549 5550 5551 5552 5555 5557 5556 5556 5558 5558 5558 5560 5560 5557 5556 5556 5556 5555 5553 5552 5550 5549 5547 5545 5543 5541 5539 5537 5534 5532 5529 5526
5508 5511 5511 5516 5519 5520 5523 5526 5526 5529 5531 5532 5533 5535 5536 5537 5538 5539 5540 5541 5544 5545 5545 5547 5546 5545 5544 5542 5542 5542 5541 5539 5538 5536 5535 5532 5531 5528 5526 5524 5521 5519 5516 5513
5489 5491 5491 5498 5501 5502 5503 5506 5508 5510 5512 5514 5516 5517 5519 5521 5523 5524 5525 5526 5529 5531 5530 5531 5532 5533 5533 5530 5529 5528 5528 5527 5525 5523 5521 5518 5516 5514 5513 5510 5507 5504 5502 5498
5473 5472 5473 5477 5480 5484 5486 5488 5491 5494 5496 5497 5500 5501 5504 5504 5506 5508 5510 5512 5513 5515 5515 5516 5518 5520 5519 5518 5516 5515 5513 5513 5512 5510 5507 5506 5504 5501 5498 5496 5493 5490 5487 5484
5454 5455 5457 5461 5464 5467 5472 5473 5476 5479 5482 5483 5485 5486 5488 5490 5491 5492 5495 5497 5497 5498 5501 5502 5503 5505 5504 5504 5503 5501 5500 5498 5497 5495 5493 5492 5490 5487 5484 5481 5477 5474 5471 5467
5441 5442 5445 5448 5450 5452 5456 5459 5462 5464 5467 5470 5471 5473 5474 5475 5476 5478 5481 5482 5484 5485 5486 5486 5487 5489 5489 5488 5488 5487 5485 5483 5482 5481 5478 5476 5474 5472 5469 5466 5462 5459 5455 5451
5430 5432 5434 5438 5440 5442 5444 5446 5448 5451 5453 5455 5457 5460 5462 5463 5464 5465 5466 5468 5471 5473 5472 5471 5471 5472 5473 5472 5472 5471 5470 5468 5466 5465 5463 5461 5459 5456 5454 5450 5446 5442 5438 5434
5417 5419 5424 5428 5428 5431 5431 5432 5435 5437 5439 5442 5444 5446 5449 5449 5451 5452 5454 5455 5456 5457 5458 5457 5456 5456 5457 5455 5456 5455 5453 5452 5451 5449 5447 5444 5443 5440 5437 5434 5429 5425 5421 5416
5407 5408 5410 5413 5415 5416 5418 5421 5424 5425 5427 5431 5433 5434 5435 5436 5437 5438 5440 5441 5441 5443 5443 5443 5442 5441 5439 5439 5438 5437 5436 5435 5434 5433 5429 5426 5425 5423 5420 5416 5413 5409 5404 5399
5395 5397 5399 5401 5402 5403 5405 5409 5412 5415 5419 5420 5420 5423 5424 5425 5426 5427 5428 5428 5428 5429 5429 5429 5428 5426 5425 5423 5421 5421 5420 5418 5417 5415 5413 5409 5407 5405 5402 5399 5395 5392 5387 5381
5381 5385 5388 5390 5391 5393 5397 5400 5401 5405 5409 5411 5411 5411 5415 5416 5417 5417 5416 5416 5417 5417 5415 5414 5414 5412 5410 5408 5406 5406 5404 5401 5399 5397 5394 5391 5390 5388 5385 5382 5378 5374 5369 5364
5368 5373 5376 5380 5381 5383 5386 5388 5390 5394 5397 5400 5401 5402 5403 5405 5406 5405 5404 5405 5405 5403 5402 5402 5400 5398 5396 5395 5392 5389 5386 5384 5382 5379 5375 5374 5372 5371 5369 5366 5363 5359 5355 5351
Wind_Speed
27 19 18 18 18 19 20 18 17 17 20 24 27 27 11 6 11 15 16 16 15 17 16 17 16 16 18 18 19 20 18 16 8 8 7 2 5 6 3 9 10 20 28 30
22 22 19 17 20 19 20 19 18 16 16 16 18 19 17 18 26 22 16 19 18 18 19 16 17 18 19 19 18 19 20 15 14 10 7 2 6 14 17 15 11 22 20 21
17 17 19 20 21 20 20 21 18 17 15 13 12 12 14 16 19 20 26 21 9 18 21 18 19 19 20 21 22 21 20 18 12 9 12 7 6 9 9 12 10 19 26 34
21 19 16 23 24 23 21 23 20 19 17 15 14 11 11 11 14 14 15 15 16 20 22 16 11 11 15 17 19 20 15 15 12 7 8 9 14 11 15 16 16 19 21 32
26 25 19 17 23 26 22 24 23 19 16 16 15 16 14 12 12 11 12 11 12 11 10 11 12 13 15 18 22 27 29 14 13 6 2 6 9 9 3 5 1 5 6 10
27 26 25 29 24 25 28 24 24 22 21 19 17 17 19 18 16 13 13 13 13 12 11 9 9 12 14 18 21 25 32 15 19 12 6 6 7 7 5 8 12 13 14 13
28 29 26 30 34 29 30 25 21 22 22 21 20 19 19 18 19 19 18 17 15 15 14 14 15 16 16 17 18 21 24 22 7 9 8 14 13 14 16 17 18 17 16 13
34 33 33 35 40 35 32 30 23 21 23 22 22 21 19 23 21 21 21 21 20 19 19 19 19 20 20 19 18 16 15 13 10 4 3 3 2 0 3 4 5 4 5 7
40 38 35 40 40 43 39 31 29 25 24 25 23 24 23 21 21 20 22 24 25 24 23 22 22 21 21 21 19 18 15 12 9 8 7 6 6 7 7 7 9 9 10 12
43 39 40 42 43 45 48 42 36 34 30 30 27 28 28 28 27 24 24 24 23 24 26 26 25 25 25 24 22 21 20 19 18 17 16 16 16 17 17 17 18 19 19 21
47 47 43 39 41 46 48 45 43 35 34 31 31 30 32 32 31 29 25 23 23 23 23 25 27 28 28 29 28 26 26 26 24 25 25 26 26 26 26 27 27 28 29 31
53 46 48 42 43 48 50 48 49 45 36 36 37 31 34 35 36 35 32 27 25 24 25 25 25 28 29 31 31 33 32 31 31 31 31 31 32 33 33 34 35 35 36 37
53 50 52 50 45 47 51 48 44 38 42 36 38 39 36 35 36 35 35 36 34 28 23 26 25 27 29 30 29 29 31 34 36 37 36 36 37 37 38 40 41 42 44 44
54 52 56 48 45 51 50 50 49 44 39 35 35 40 42 39 35 37 37 38 37 38 31 29 27 26 24 28 31 31 31 32 33 35 37 40 44 44 41 40 42 45 47 48
52 51 58 52 46 46 47 49 50 42 46 40 38 41 43 45 42 42 42 41 41 40 39 37 30 27 27 26 30 31 33 33 32 33 35 36 38 40 42 44 48 50 55 54
54 59 58 56 49 49 55 52 50 48 48 50 47 47 45 45 45 47 48 50 48 46 43 40 34 33 30 28 29 30 33 34 33 34 36 39 40 39 40 42 43 41 36 34
56 58 59 58 52 50 51 49 52 48 48 48 50 51 47 47 48 47 48 51 51 45 42 41 38 39 35 32 32 32 34 35 34 36 37 37 37 35 36 39 41 44 47 49
55 56 57 52 51 48 47 44 46 47 43 42 46 47 46 43 44 42 44 46 41 39 39 42 42 41 38 35 35 36 36 37 38 37 38 38 38 39 40 41 43 44 44 44
47 49 50 48 44 41 44 40 43 42 43 44 46 45 44 41 41 43 43 44 43 40 40 39 41 41 40 39 39 39 39 39 41 43 43 42 42 41 42 43 44 46 47 50
44 42 42 43 46 46 45 45 44 45 45 46 45 44 45 44 41 40 38 41 41 38 38 38 39 41 42 40 43 42 42 42 43 45 44 44 44 45 45 45 47 49 48 50
39 42 44 41 42 43 46 46 45 45 45 45 45 46 46 45 40 38 38 38 38 37 37 36 37 40 39 40 43 44 44 45 46 46 45 46 45 46 47 48 50 51 52 54
42 38 40 36 39 42 43 45 46 45 43 43 42 44 44 43 42 42 42 41 41 41 40 39 41 43 42 43 43 44 44 44 45 46 46 47 47 48 50 51 52 54 54 55
36 38 39 37 27 22 24 30 35 39 39 40 42 43 43 41 41 42 43 43 46 49 51 51 49 44 41 40 42 42 44 45 47 47 47 47 49 51 52 53 54 55 57 58
48 47 39 43 41 24 18 21 24 27 32 38 39 39 40 40 37 38 38 39 41 42 45 46 45 44 44 43 40 42 45 46 47 48 46 47 50 52 52 53 55 56 58 60
47 49 50 44 40 37 28 30 26 27 26 26 26 28 28 32 35 35 35 35 37 38 39 41 43 44 41 37 38 42 45 45 47 49 51 50 52 52 53 54 54 57 59 60
50 47 47 49 47 46 44 39 36 30 29 30 27 27 35 36 33 33 33 34 35 35 33 35 38 39 39 40 41 45 48 48 49 51 51 51 54 54 53 53 53 55 55 57
36 39 37 39 38 43 46 46 43 39 33 33 34 31 31 33 31 29 30 31 31 31 31 33 34 36 38 41 43 45 47 50 52 54 53 54 54 53 50 49 49 49 49 48
Wind_Direction
343 346 344 337 338 338 337 342 354 0 10 24 31 47 55 335 299 278 278 277 286 297 301 309 319 329 340 337 338 340 350 359 347 326 7 52 75 87 91 190 206 206 211 215
342 344 340 328 328 332 331 332 334 342 352 4 21 29 32 33 37 27 281 267 273 283 289 294 302 312 320 324 325 328 336 341 345 304 312 282 221 213 212 205 189 197 194 212
333 335 337 331 327 332 327 324 329 331 332 339 344 359 12 16 25 43 46 46 329 286 281 283 288 297 305 309 311 312 308 315 334 341 227 243 259 189 224 227 203 227 213 198
320 314 322 319 324 329 332 326 325 324 323 317 313 318 327 346 359 10 25 35 39 44 48 52 49 49 35 27 15 358 315 271 292 315 327 256 248 234 241 254 234 230 238 239
311 309 315 310 309 312 312 315 321 318 313 309 311 309 305 307 309 319 336 348 7 17 24 20 16 17 10 6 5 2 352 279 218 247 322 2 30 228 250 212 278 268 234 219
308 310 308 308 302 298 306 299 307 311 311 297 295 296 296 296 291 290 293 300 311 322 329 339 345 347 349 354 358 3 0 326 200 185 227 276 278 251 252 254 249 252 253 249
294 307 308 299 295 293 293 294 296 299 302 298 291 281 284 287 291 294 289 284 287 290 294 299 307 315 323 331 342 353 8 24 188 196 242 279 284 270 254 251 260 258 259 255
298 298 299 292 292 290 288 286 281 274 281 287 291 297 288 282 282 284 286 287 284 279 281 287 292 297 302 310 317 328 345 10 38 53 30 10 4 81 161 178 206 223 237 250
296 297 295 289 288 289 292 284 279 265 267 274 282 285 289 283 282 282 283 281 282 282 281 282 283 286 290 294 298 298 300 308 311 309 301 288 275 268 267 266 269 270 269 268
296 293 291 283 282 280 283 283 279 271 261 262 270 274 279 286 287 289 291 292 291 289 285 285 284 286 285 284 284 286 286 281 279 279 279 276 275 278 278 279 280 278 276 274
294 294 284 282 278 277 279 282 279 271 263 259 261 266 271 275 281 284 285 285 286 289 289 290 287 283 281 283 286 283 280 278 276 275 273 271 271 273 274 274 273 274 276 276
289 285 275 280 274 272 272 276 278 277 268 258 260 260 263 270 274 280 283 284 280 281 283 284 287 290 291 287 283 280 279 281 280 276 274 275 275 275 275 275 276 276 276 277
286 280 277 280 273 263 266 271 276 276 268 260 257 261 262 262 266 270 276 282 284 284 280 281 284 288 291 294 295 293 287 281 279 276 282 282 278 276 276 276 277 278 279 279
276 276 274 272 271 263 261 268 273 266 268 260 251 256 259 259 260 266 270 275 279 284 282 277 278 285 290 289 289 291 292 291 288 284 281 280 277 278 281 283 282 281 280 280
273 271 273 264 256 261 263 262 264 265 262 262 254 255 258 255 259 264 268 271 275 277 280 282 283 285 285 284 283 284 288 293 294 293 288 284 282 282 284 288 289 284 279 279
262 266 267 271 264 259 257 261 259 258 258 255 252 252 257 258 261 263 264 267 271 272 273 277 278 277 279 281 281 282 282 283 286 286 287 289 288 285 284 284 287 286 290 290
255 255 258 261 264 262 258 255 256 257 257 257 258 253 259 260 268 269 266 266 271 268 267 273 272 276 276 275 277 278 278 275 274 278 283 285 284 287 289 288 287 286 286 287
257 259 261 262 260 256 257 255 258 255 254 256 258 256 255 260 265 268 269 266 263 263 263 268 271 273 275 277 275 276 278 277 274 273 274 277 273 277 281 283 286 288 288 290
262 263 262 254 251 253 252 251 254 254 252 255 257 255 255 261 264 266 267 262 257 260 266 270 272 272 272 275 274 274 276 276 275 273 274 279 281 279 279 279 283 286 289 291
265 263 266 267 260 253 248 246 247 254 257 256 256 256 257 260 263 265 267 261 256 256 262 265 266 269 271 277 277 278 278 277 277 277 277 277 279 280 281 282 283 286 287 288
265 274 272 266 259 254 249 247 247 251 255 256 255 257 259 260 259 259 261 260 261 260 260 263 268 271 274 275 276 278 278 279 280 281 280 280 281 282 282 283 284 286 287 288
254 262 256 260 264 264 263 258 256 258 258 256 258 260 259 260 261 261 260 259 260 260 262 266 270 274 276 275 276 277 278 279 280 281 281 282 283 284 285 286 286 286 288 289
253 252 249 250 247 250 261 256 259 258 255 254 257 264 267 268 267 270 272 273 271 270 270 272 273 272 271 273 275 278 280 281 281 280 282 285 286 285 285 285 286 288 290 292
252 259 262 251 242 249 250 262 263 262 258 255 258 267 276 278 275 273 273 273 274 276 277 276 272 269 269 270 273 278 279 279 281 281 281 282 283 284 285 286 288 290 291 292
257 258 263 264 273 282 277 265 266 278 277 279 271 276 289 284 281 279 278 277 275 274 275 278 275 270 270 276 279 278 278 279 279 279 281 282 282 283 283 285 287 288 290 292
261 261 261 264 270 271 266 280 284 279 288 284 284 287 287 291 283 282 284 284 283 281 282 282 281 281 278 276 277 278 278 278 279 279 279 280 279 279 280 283 284 287 290 292
249 253 257 261 264 267 272 274 275 275 273 284 284 282 281 282 286 290 291 288 284 284 285 284 284 286 287 286 286 285 283 281 279 277 276 274 273 274 277 281 284 286 291 295